Home   Weather   Norwich   Past weeks

Flag for United Kingdom Past Weather in Norwich, England, United Kingdom — Yesterday and Last 2 Weeks

Now
52 °F

Fog.


Feels Like: 49 °F
Forecast: 48 / 53 °F
Wind: 9 mph from Southwest

Location: Norwich Weather Centre

Current Time: Dec 10, 2016 at 3:23:19 am

Latest Report: Dec 10, 2016 at 2:50 am


Visibility: 3 mi

Pressure: 30.12 "Hg

Humidity: 100%

Dew Point: 52 °F

Location of NorwichLocation

Past Weather in Norwich — Graph

°F

Norwich Temperature Yesterday

Maximum temperature yesterday: 57 °F (at 12:20 pm)
Minimum temperature yesterday: 48 °F (at 12:20 am)
Average temperature yesterday: 54 °F

High & Low Weather Summary for the Past Weeks

 TemperatureHumidityPressure
High57 °F (Dec 8, 3:50 pm)100% (Nov 25, 5:20 pm)30.57 "Hg (Nov 25, 5:20 pm)
Low25 °F (Dec 5, 4:20 am)62% (Nov 27, 7:20 pm)30.12 "Hg (Nov 26, 2:50 pm)
Average42 °F91%30.31 "Hg
* Reported Nov 25 1:20 am — Dec 10 1:50 am, Norwich, Weather by CustomWeather, © 2016

Note: Actual official high and low records may vary slightly from our data, if they occured in-between our weather recording intervals... More about our weather records

Advertising

Norwich Weather History for the Previous 24 Hours

Scroll right to see more
 ConditionsComfort  
Time TempWeatherWind HumidityBarometerVisibility
1:50 am
Sat, Dec 10
52 °FOvercast.9 mph100%30.12 "Hg6 mi
1:20 am52 °FPassing clouds.9 mph100%30.15 "HgN/A
12:50 am52 °FMostly cloudy.10 mph94%30.15 "HgN/A
12:20 am52 °FPassing clouds.12 mph94%30.15 "HgN/A
11:50 pm
Fri, Dec 9
52 °FPassing clouds.13 mph94%30.15 "HgN/A
11:20 pm52 °FCool.10 mph94%30.15 "HgN/A
10:50 pm52 °FCool.10 mph94%30.18 "HgN/A
10:20 pm52 °FCool.13 mph94%30.15 "HgN/A
9:50 pm54 °FCool.14 mph88%30.15 "HgN/A
9:20 pm54 °FClear.13 mph88%30.15 "Hg10 mi
8:50 pm55 °FClear.14 mph88%30.15 "Hg10 mi
8:20 pm55 °FClear.13 mph88%30.15 "Hg10 mi
7:50 pm55 °FClear.14 mph88%30.18 "Hg10 mi
7:20 pm55 °FClear.15 mph88%30.18 "Hg10 mi
6:20 pm55 °FClear.14 mph88%30.18 "Hg10 mi
5:50 pm55 °FClear.15 mph88%30.18 "Hg10 mi
5:20 pm55 °FClear.14 mph88%30.18 "Hg10 mi
4:50 pm55 °FClear.16 mph88%30.18 "Hg10 mi
4:20 pm57 °FClear.15 mph88%30.18 "Hg10 mi
3:50 pm57 °FClear.14 mph82%30.18 "Hg10 mi
3:20 pm57 °FSunny.12 mph82%30.18 "Hg10 mi
2:50 pm57 °FPassing clouds.12 mph88%30.21 "HgN/A
2:20 pm57 °FPassing clouds.13 mph88%30.21 "HgN/A
1:50 pm57 °FPassing clouds.12 mph88%30.21 "HgN/A
1:20 pm57 °FPassing clouds.13 mph88%30.21 "HgN/A
12:50 pm57 °FPassing clouds.13 mph88%30.21 "Hg6 mi
12:20 pm57 °FPassing clouds.12 mph88%30.21 "Hg6 mi
11:50 am55 °FPassing clouds.10 mph100%30.21 "Hg6 mi
11:20 am55 °FPassing clouds.10 mph100%30.24 "Hg6 mi
10:50 am54 °FLight rain. Scattered clouds.12 mph100%30.24 "Hg6 mi
10:20 am55 °FBroken clouds.12 mph100%30.24 "Hg6 mi
9:50 am55 °FBroken clouds.13 mph100%30.24 "Hg6 mi
9:20 am55 °FBroken clouds.13 mph100%30.24 "Hg4 mi
8:50 am54 °FMore clouds than sun.13 mph100%30.24 "Hg4 mi
8:20 am54 °FMore clouds than sun.12 mph100%30.24 "Hg4 mi
7:50 am54 °FFog.12 mph100%30.24 "Hg2 mi
7:20 am54 °FFog.10 mph100%30.24 "Hg3 mi
6:50 am54 °FFog.8 mphN/A30.24 "Hg3 mi
6:20 am54 °FFog.9 mphN/A30.24 "Hg3 mi
5:50 am52 °FLow clouds.8 mphN/A30.24 "Hg4 mi
5:20 am52 °FMostly cloudy.8 mphN/A30.24 "Hg3 mi
4:20 am52 °FLow clouds.9 mphN/A30.27 "Hg5 mi
3:50 am52 °FMostly cloudy.8 mphN/A30.27 "Hg4 mi
3:20 am50 °FPassing clouds.6 mphN/A30.27 "Hg3 mi
Weather by CustomWeather, © 2016

See weather overviewHow to use our weather pages